When you browse on this site, cookies collect data to enhance your experience and personalize the content and advertising you see.
Visit our Privacy Policy to learn more. By continuing to use the site, you agree to this use of cookies and data.
  • In Hungary
  • List of Countries
  • For 7 days
  • Water Temperature
  • Weather Map
  • News
  • Weather Widgets
  • user-avatar
    Login

    Hourly Weather Suzak

    Today, 15 December, Sunday

    Time Temperature Precipitation Wind Pressure Humidity
    00:00 -2°C° 0 mm 1 mps 743 mmHg 83%
    01:00 -3°C° 0 mm 1 mps 744 mmHg 82%
    02:00 -3°C° 0 mm 1 mps 744 mmHg 81%
    03:00 -3°C° 0 mm 1 mps 744 mmHg 83%
    04:00 -3°C° 0 mm 1 mps 744 mmHg 84%
    05:00 -3°C° 0 mm 1 mps 744 mmHg 86%
    06:00 -3°C° 0 mm 1 mps 744 mmHg 87%
    07:00 -5°C° 0 mm 0 mps 744 mmHg 88%
    08:00 -5°C° 0 mm 0 mps 744 mmHg 90%
    09:00 -4°C° 0 mm 0 mps 744 mmHg 86%
    10:00 -3°C° 0 mm 0 mps 745 mmHg 81%
    11:00 -2°C° 0 mm 0 mps 745 mmHg 77%
    12:00 0°C° 0 mm 1 mps 744 mmHg 74%
    13:00 +1°C° 0 mm 1 mps 744 mmHg 72%
    14:00 +1°C° 0 mm 1 mps 744 mmHg 69%
    15:00 -2°C° 0 mm 2 mps 744 mmHg 73%
    16:00 -2°C° 0 mm 2 mps 744 mmHg 77%
    17:00 -3°C° 0 mm 2 mps 744 mmHg 81%
    18:00 -3°C° 0 mm 2 mps 744 mmHg 82%
    19:00 -3°C° 0 mm 2 mps 744 mmHg 84%
    20:00 -5°C° 0 mm 3 mps 744 mmHg 85%
    21:00 -5°C° 0 mm 3 mps 744 mmHg 84%
    22:00 -5°C° 0 mm 3 mps 744 mmHg 83%
    23:00 -5°C° 0 mm 3 mps 744 mmHg 83%

    Tomorrow, 16 December, Monday

    Time Temperature Precipitation Wind Pressure Humidity
    00:00 -5°C° 0 mm 3 mps 743 mmHg 83%
    01:00 -5°C° 0 mm 3 mps 743 mmHg 83%
    02:00 -5°C° 0 mm 3 mps 743 mmHg 83%
    03:00 -5°C° 0 mm 3 mps 743 mmHg 83%
    04:00 -5°C° 0 mm 3 mps 743 mmHg 83%
    05:00 -5°C° 0 mm 4 mps 743 mmHg 83%
    06:00 -5°C° 0 mm 3 mps 743 mmHg 82%
    07:00 -5°C° 0 mm 3 mps 743 mmHg 82%
    08:00 -5°C° 0 mm 3 mps 743 mmHg 82%
    09:00 -4°C° 0 mm 4 mps 743 mmHg 75%
    10:00 -3°C° 0 mm 4 mps 743 mmHg 69%
    11:00 -1°C° 0 mm 4 mps 743 mmHg 62%
    12:00 -1°C° 0 mm 4 mps 743 mmHg 60%
    13:00 0°C° 0 mm 4 mps 743 mmHg 59%
    14:00 0°C° 0 mm 4 mps 742 mmHg 57%
    15:00 -1°C° 0 mm 4 mps 742 mmHg 61%
    16:00 -1°C° 0 mm 3 mps 742 mmHg 66%
    17:00 -2°C° 0 mm 3 mps 742 mmHg 71%
    18:00 -2°C° 0 mm 3 mps 742 mmHg 72%
    19:00 -2°C° 0 mm 3 mps 742 mmHg 73%
    20:00 -4°C° 0 mm 3 mps 742 mmHg 75%
    21:00 -3°C° 0 mm 2 mps 742 mmHg 75%
    22:00 -3°C° 0 mm 2 mps 742 mmHg 76%
    23:00 -4°C° 0 mm 2 mps 741 mmHg 77%

    Day after tomorrow, 17 December, Tuesday

    Time Temperature Precipitation Wind Pressure Humidity
    00:00 -4°C° 0 mm 2 mps 741 mmHg 76%
    01:00 -4°C° 0 mm 2 mps 741 mmHg 74%
    02:00 -4°C° 0 mm 2 mps 741 mmHg 73%
    03:00 -4°C° 0 mm 2 mps 741 mmHg 73%
    04:00 -4°C° 0 mm 2 mps 741 mmHg 72%
    05:00 -4°C° 0 mm 2 mps 741 mmHg 71%
    06:00 -4°C° 0 mm 2 mps 741 mmHg 71%
    07:00 -4°C° 0 mm 2 mps 741 mmHg 71%
    08:00 -5°C° 0 mm 2 mps 741 mmHg 72%
    09:00 -3°C° 0 mm 2 mps 741 mmHg 63%
    10:00 -1°C° 0 mm 2 mps 741 mmHg 54%
    11:00 +2°C° 0 mm 2 mps 742 mmHg 45%
    12:00 +2°C° 0 mm 2 mps 741 mmHg 42%
    13:00 +3°C° 0 mm 2 mps 741 mmHg 40%
    14:00 +4°C° 0 mm 2 mps 740 mmHg 37%
    15:00 +3°C° 0 mm 2 mps 740 mmHg 40%
    16:00 +1°C° 0 mm 2 mps 739 mmHg 43%
    17:00 -1°C° 0 mm 2 mps 739 mmHg 46%
    18:00 -1°C° 0 mm 2 mps 739 mmHg 44%
    19:00 -1°C° 0 mm 2 mps 739 mmHg 42%
    20:00 -1°C° 0 mm 2 mps 738 mmHg 40%
    21:00 -1°C° 0 mm 2 mps 738 mmHg 41%
    22:00 -1°C° 0 mm 2 mps 738 mmHg 43%
    23:00 -1°C° 0 mm 2 mps 738 mmHg 44%

    18 December, Wednesday

    Time Temperature Precipitation Wind Pressure Humidity
    00:00 -1°C° 0 mm 2 mps 737 mmHg 43%
    01:00 +1°C° 0 mm 1 mps 737 mmHg 43%
    02:00 +1°C° 0 mm 1 mps 737 mmHg 42%
    03:00 +1°C° 0 mm 1 mps 737 mmHg 40%
    04:00 +2°C° 0 mm 1 mps 737 mmHg 39%
    05:00 +2°C° 0 mm 1 mps 736 mmHg 37%
    06:00 +2°C° 0 mm 1 mps 737 mmHg 36%
    07:00 +1°C° 0 mm 2 mps 737 mmHg 35%
    08:00 +2°C° 0 mm 2 mps 737 mmHg 34%
    09:00 +2°C° 0 mm 2 mps 737 mmHg 33%
    10:00 +3°C° 0 mm 2 mps 737 mmHg 33%
    11:00 +4°C° 0 mm 2 mps 738 mmHg 32%
    12:00 +4°C° 0 mm 3 mps 738 mmHg 32%
    13:00 +4°C° 0 mm 4 mps 738 mmHg 32%
    14:00 +5°C° 0 mm 5 mps 738 mmHg 32%
    15:00 +2°C° 0 mm 5 mps 738 mmHg 38%
    16:00 +1°C° 0 mm 4 mps 739 mmHg 44%
    17:00 -1°C° 0 mm 4 mps 739 mmHg 51%
    18:00 -1°C° 0 mm 4 mps 739 mmHg 54%
    19:00 -1°C° 0 mm 4 mps 740 mmHg 58%
    20:00 -1°C° 0 mm 4 mps 740 mmHg 61%
    21:00 -1°C° 0 mm 4 mps 740 mmHg 65%
    22:00 -1°C° 0 mm 4 mps 740 mmHg 69%
    23:00 -1°C° 0 mm 4 mps 740 mmHg 73%

    19 December, Thursday

    Time Temperature Precipitation Wind Pressure Humidity
    00:00 -1°C° 0 mm 4 mps 740 mmHg 73%
    01:00 -1°C° 0 mm 4 mps 740 mmHg 73%
    02:00 -1°C° 0 mm 4 mps 740 mmHg 74%
    03:00 -1°C° 0 mm 5 mps 739 mmHg 73%
    04:00 -1°C° 0 mm 5 mps 739 mmHg 73%
    05:00 -2°C° 0 mm 6 mps 739 mmHg 72%
    06:00 -1°C° 0 mm 6 mps 739 mmHg 71%
    07:00 -1°C° 0 mm 7 mps 739 mmHg 69%
    08:00 -1°C° 0 mm 7 mps 739 mmHg 67%
    09:00 0°C° 0.1 mm 8 mps 739 mmHg 67%
    10:00 0°C° 0.1 mm 8 mps 739 mmHg 66%
    11:00 +1°C° 0.1 mm 9 mps 739 mmHg 66%
    12:00 +1°C° 0.1 mm 8 mps 738 mmHg 66%
    13:00 +1°C° 0.1 mm 8 mps 738 mmHg 66%
    14:00 +1°C° 0.1 mm 8 mps 737 mmHg 66%
    15:00 +1°C° 0.2 mm 8 mps 737 mmHg 71%
    16:00 +2°C° 0.2 mm 7 mps 737 mmHg 76%
    17:00 0°C° 0.2 mm 7 mps 737 mmHg 80%
    18:00 +1°C° 0.2 mm 6 mps 737 mmHg 81%
    19:00 +1°C° 0.2 mm 6 mps 738 mmHg 82%
    20:00 +1°C° 0.2 mm 5 mps 738 mmHg 82%
    21:00 +1°C° 0.2 mm 5 mps 738 mmHg 84%
    22:00 +1°C° 0.2 mm 4 mps 738 mmHg 85%
    23:00 +1°C° 0.2 mm 4 mps 738 mmHg 86%

    20 December, Friday

    Time Temperature Precipitation Wind Pressure Humidity
    00:00 +1°C° 0.1 mm 4 mps 738 mmHg 87%
    01:00 +2°C° 0.1 mm 3 mps 737 mmHg 88%
    02:00 +2°C° 0.1 mm 3 mps 737 mmHg 89%
    03:00 +2°C° 0.1 mm 3 mps 737 mmHg 89%
    04:00 +2°C° 0.1 mm 3 mps 737 mmHg 90%
    05:00 +2°C° 0.1 mm 3 mps 737 mmHg 91%
    06:00 +2°C° 0.1 mm 3 mps 737 mmHg 90%
    07:00 +2°C° 0.1 mm 3 mps 737 mmHg 90%
    08:00 +2°C° 0.1 mm 3 mps 737 mmHg 90%
    09:00 +3°C° 0 mm 4 mps 737 mmHg 85%
    10:00 +3°C° 0 mm 5 mps 737 mmHg 80%
    11:00 +5°C° 0 mm 5 mps 737 mmHg 76%
    12:00 +4°C° 0 mm 6 mps 736 mmHg 70%
    13:00 +5°C° 0 mm 7 mps 736 mmHg 64%
    14:00 +5°C° 0 mm 8 mps 735 mmHg 57%
    15:00 +4°C° 0 mm 7 mps 735 mmHg 55%
    16:00 +3°C° 0 mm 6 mps 735 mmHg 53%
    17:00 +3°C° 0 mm 5 mps 734 mmHg 51%
    18:00 +3°C° 0 mm 6 mps 734 mmHg 51%
    19:00 +3°C° 0 mm 7 mps 734 mmHg 51%
    20:00 +3°C° 0 mm 7 mps 734 mmHg 51%
    21:00 +3°C° 0 mm 7 mps 734 mmHg 52%
    22:00 +2°C° 0 mm 8 mps 734 mmHg 53%
    23:00 +2°C° 0 mm 8 mps 733 mmHg 54%
    Show more